Content
SEND FEEDBACK

Daily
Averages
Monthly
Summary
United States of America

CHESTERFIELD, MISSOURI


Home > North America > United States > Missouri
Elevation: 170 meters     Latitude: 38 41N     Longitude: 090 31W

WEATHER
 
SELECT A DAY
Number of Records: 206,460;   Date Range: 1/1/95 - 10/18/14
 
SHARE

PRINT THIS DATA

[ ← Previous Day ]
WEATHER ALMANAC - 20 JANUARY, 2013
[ Next Day → ]
[ °F ]   °C
Weather ElementAverageHighLow
Temperature-0.6 °C6.1 °C (1:51 am)-3.9 °C (11:51 pm)
Dewpoint-10.3 °C-4.4 °C (1:51 am)-12.8 °C (8:51 am)
Humidity48.9 %73 % (4:51 am)38 % (2:51 pm)
Barometer1026.8 hPa1028.8 hPa (9:51 am)1022.4 hPa (1:51 am)
Wind Speed16.1 km/h35.2 km/h (1:51 am)
Wind Gust46.3 km/h (1:51 am)
Weather ElementAverage
Visibility16.1 km
Wind DirectionWSW (253.6 °)

Weather ElementTotal
Precipitation---
Heating Degree Days17.2 (Base 18.3)
Averaged from 22 records on 20 January, 2013
WEATHER CONDITIONS BREAKOUT
WIND DIRECTION BREAKOUT
WEATHER BY HOUR - 20 JANUARY, 2013
[ °F ]   °C
Local TimeTemperatureDewpointHumidityBarometerVisibilityWind DirectionWind SpeedGust SpeedPrecipitationEventsConditions
1:51 AM6.1 °C-4.4 °C47 %1022.4 hPa16.1 kmNW (320°)35.2 km/h46.3 km/hClear
2:51 AM4.4 °C-5 °C51 %1023 hPa16.1 kmNW (310°)22.2 km/h38.9 km/hClear
3:51 AM2.8 °C-7.8 °C46 %1023.7 hPa16.1 kmNW (320°)27.8 km/h42.6 km/hClear
4:51 AM0 °C-4.4 °C73 %1025.1 hPa16.1 kmNorth (360°)18.5 km/hClear
5:51 AM-1.1 °C-7.8 °C61 %1026.1 hPa16.1 kmNNW (340°)13 km/hClear
6:51 AM-2.2 °C-10.6 °C53 %1026.8 hPa16.1 kmNNW (340°)16.7 km/hPartly Cloudy
7:51 AM-2.2 °C-11.7 °C49 %1027.4 hPa16.1 kmNorth (10°)14.8 km/hScattered Clouds
8:51 AM-1.7 °C-12.8 °C43 %1028.4 hPa16.1 kmNorth (360°)18.5 km/hScattered Clouds
9:51 AM-1.7 °C-12.2 °C45 %1028.8 hPa16.1 kmNNW (340°)16.7 km/hMostly Cloudy
11:51 AM0 °C-12.2 °C40 %1027.4 hPa16.1 kmNorth (360°)16.7 km/hMostly Cloudy
12:51 PM0 °C-12.2 °C40 %1026.1 hPa16.1 kmNE (40°)11.1 km/hMostly Cloudy
1:51 PM0.6 °C-11.7 °C40 %1027.1 hPa16.1 kmNNW (340°)13 km/hMostly Cloudy
2:51 PM1.1 °C-11.7 °C38 %1026.8 hPa16.1 kmNorth (10°)9.3 km/hMostly Cloudy
3:51 PM0 °C-12.2 °C40 %1027.1 hPa16.1 kmNorth (360°)7.4 km/hMostly Cloudy
4:51 PM-0.6 °C-11.7 °C43 %1027.4 hPa16.1 kmNNE (20°)11.1 km/hMostly Cloudy
5:51 PM-1.7 °C-11.1 °C49 %1027.4 hPa16.1 kmNorth (360°)13 km/hMostly Cloudy
6:51 PM-1.1 °C-11.7 °C45 %1027.1 hPa16.1 kmNorth (10°)13 km/hOvercast
7:51 PM-2.2 °C-11.1 °C51 %1027.4 hPa16.1 kmNorth (10°)13 km/hMostly Cloudy
8:51 PM-2.8 °C-11.1 °C53 %1027.4 hPa16.1 kmNorth (360°)16.7 km/hOvercast
9:51 PM-2.8 °C-10.6 °C56 %1027.8 hPa16.1 kmNorth (360°)14.8 km/hOvercast
10:51 PM-3.3 °C-11.1 °C55 %1027.4 hPa16.1 kmNNW (340°)14.8 km/hOvercast
11:51 PM-3.9 °C-11.1 °C58 %1027.4 hPa16.1 kmNW (310°)16.7 km/hMostly Cloudy
Hourly data recorded from KSTL, located 0 kilometers away from Chesterfield, Missouri







STORIES FROM OUR PARTNERS